User: anonymous   Login
Location: Melbourne
(37.8170°S, 144.9670°E)
Time: 11:29:43
(UTC+11:00)
Language:

ISS - Orbit

View from above orbital plane
View from above orbital plane
View from above satellite
View from above satellite

Ground track
Ground track

The orbit data is extracted from the following two-line orbital elements,

1 25544U 98067A   17087.52462725  .00016717  00000-0  10270-3 0  9014
2 25544  51.6375  80.3769 0007671 348.5767  11.5210 15.54259079  9201
Epoch (UTC): 28 March 2017 12:35:27
Eccentricity: 0.0007671
inclination: 51.6375°
perigee height: 399 km
apogee height: 409 km
right ascension of ascending node: 80.3769°
argument of perigee: 348.5767°
revolutions per day: 15.54259079
mean anomaly at epoch: 11.5210°
orbit number at epoch: 920

The dashed part of the orbit path shows where the satellite is in the earth's shadow,  

DLR